Location: Navajo Flats
(35.4008°N, 120.2808°W)
Time: 08:25:30
(UTC-08:00)

X-37B - Visible Passes

Search period start: 02 December 2020 00:00
Search period end: 12 December 2020 00:00
Orbit: 384 x 390 km, 45.0° (Epoch: 26 November)

Date Brightness Start Highest point End Pass type
(mag) Time Alt. Az. Time Alt. Az. Time Alt. Az.
02 Dec 2.8 17:43:31 10° NW 17:45:32 16° N 17:47:08 12° NNE visible
03 Dec 3.0 18:22:15 10° NNW 18:23:28 14° N 18:23:28 14° N visible
04 Dec 2.8 17:23:27 10° NW 17:25:17 14° N 17:27:07 10° NE visible
05 Dec 2.5 18:01:42 10° NNW 18:03:53 17° N 18:03:59 17° NNE visible
06 Dec 2.9 18:39:26 10° NW 18:40:30 18° NNW 18:40:30 18° NNW visible
07 Dec 2.1 17:41:02 10° NW 17:43:35 22° NNE 17:44:50 17° NE visible
08 Dec 0.8 18:18:45 10° NW 18:21:38 53° N 18:21:38 53° N visible
09 Dec 1.5 17:20:20 10° NW 17:23:13 31° NNE 17:26:06 10° E visible
09 Dec 2.9 18:56:56 10° WNW 18:58:39 25° W 18:58:39 25° W visible
10 Dec 0.7 17:58:12 10° WNW 18:01:21 74° SSW 18:03:40 17° SE visible
11 Dec 3.5 18:37:02 10° W 18:39:09 17° SW 18:41:15 10° S visible
